ZHONGXING-2C

Last updated on Mon Jun 22 2026 00:03:05 GMT+0000 (Coordinated Universal Time)

1 41021U 15063A 26172.55317016 -.00000324 00000+0 00000+0 0 9997 2 41021 0.2863 89.5482 0007780 98.5522 24.2173 1.00268996 39022
UTC large
Height (km)
Speed (km/s)
/
Latitude / Longitude
Inclination (degrees)
Orbital Period (minutes)
Azimuth
Elevation
Range (km)
Doppler Factor

Next 0 passes for location: London (51.5072 / 0.1276)

No passes found over London.
ZHONGXING-2C